Regional Weather Roundup
Issued by NWS Portland, ME

Home | Current Version | Previous Version | Text Only | Print | Product List | Glossary On
Versions: 1 2 3 4 5 6 7 8 9 10 11 12 13 14 15 16 17 18 19 20 21 22 23 24 25 26 27 28 29 30 31 32 33 34 35 36 37 38 39 40 41 42 43 44 45 46 47 48 49 50
000
ASUS41 KGYX 172110
RWRGYX
WEATHER ROUNDUP FOR MAINE AND NEW HAMPSHIRE
NATIONAL WEATHER SERVICE GRAY ME
400 PM EST WED DEC 17 2014

MEZ002-005-006-010-012-015-018-020-021-024-026-027-029-172200-
MAINE

CITY           SKY/WX    TMP DP  RH WIND       PRES   REMARKS
PORTLAND       LGT RAIN  41  39  93 NW15G23   29.66R FOG
SANFORD        CLOUDY    41  34  75 NW9       29.67F
BAR HARBOR     CLOUDY    39  39 100 NE12      29.66F
WISCASSET      CLOUDY    41  39  93 VRB7      29.66R FOG
ROCKLAND       CLOUDY    43  43 100 NE15G21   29.63S
FRYEBURG       CLOUDY    39  37  92 N5        29.70S
LEWISTONAUBURN CLOUDY    37  36  93 N16       29.68R
AUGUSTA        MIX PCPN  35  34  96 N13       29.68F FOG
WATERVILLE     CLOUDY    36  34  93 N14       29.67S
BANGOR         LGT RAIN  37  36  96 N12       29.70F FOG
GREENVILLE       N/A     33  31  92 NE6       29.69F
MILLINOCKET    LGT SNOW  33  32  96 N6        29.79F VSB 1
HOULTON        LGT SNOW  33  30  88 NE10      29.79F FOG
PRESQUE ISLE   CLOUDY    34  28  80 N3        29.82F
FRENCHVILLE    LGT SNOW  28  27  96 NE8       29.82F FOG
CARIBOU        LGT SNOW  32  31  96 NE6       29.82F FOG
$$

NHZ002-005-008-009-011-012-014-172200-
NEW HAMPSHIRE

CITY           SKY/WX    TMP DP  RH WIND       PRES   REMARKS
PORTSMOUTH     CLOUDY    44  40  85 NW15      29.66S
ROCHESTER      CLOUDY    43  39  86 NW9       29.67F
NASHUA         CLOUDY    46  41  83 NW6       29.71S
MANCHESTER     MOCLDY    44  40  85 NW8       29.69S
CONCORD        CLOUDY    41  38  89 NW8       29.70F
LACONIA        CLOUDY    39  37  93 SW3       29.68S
PLYMOUTH       CLOUDY    38  38 100 NW3       29.70S
BERLIN         CLOUDY    35  33  92 CALM      29.70S
WHITEFIELD     LGT RAIN  36  34  92 CALM      29.71S FOG
JAFFREY        CLOUDY    40  37  89 VRB7      29.71S
KEENE          CLOUDY    39  39 100 CALM      29.73S
LEBANON        CLOUDY    35  33  92 CALM      29.72F FOG
MT WASHINGTON  SNOW      25  25 100 NW24        N/A  VSB 1/16WCI   9
$$

VTZ005-007-008-172200-
VERMONT

CITY           SKY/WX    TMP DP  RH WIND       PRES   REMARKS
ST JOHNSBURY     N/A     36  36 100 MISG      29.72R
MONTPELIER     LGT RAIN  34  33  96 CALM      29.75F VSB 1/2
BURLINGTON     FOG       38  36  92 CALM      29.75R VSB 3/4
$$

MAZ007-012-024-CTZ003-RIZ002-NYZ038-NYZ072-172200-
SOUTHERN NEW ENGLAND AND NY

CITY           SKY/WX    TMP DP  RH WIND       PRES   REMARKS
BOSTON         PTCLDY    48  42  80 NW7       29.69S
WORCESTER      CLOUDY    42  38  85 W16       29.72R
NANTUCKET      CLOUDY    47  42  83 W14       29.70R
PROVIDENCE     MOCLDY    49  38  65 NW13      29.73R
HARTFORD       CLOUDY    48  38  68 W7        29.77R
ALBANY         CLOUDY    41  33  73 W14       29.81R
NEW YORK CITY  CLOUDY    50  36  58 NW18G25   29.83R
$$

ANZ081-ANZ082-ANZ150-NHZ014-MEZ023>029-172200-
COASTAL MARINE OBSERVATIONS

STATION/POSITION TIME  TEMP    WIND        PRES    WAVE
                       AIR SEA DIR/SP/G            HT/PER
                 (UTC) (F)     (DEG/KT/KT) (MB)    (FT/S)
MOUNT DESERT ROC 2100   45                 1001.6F
MATINICUS ROCK   2000           90/ 30/ 33 1001.4F
PORTLAND WX BUOY 2050   41 45  340/ 23/ 27 1002.7R   6/ 8
WELLS            2000   42 39  340/ 12/ 16 1003.4R
ISLE OF SHOALS   2000   43     320/ 23/ 25 1003.3R
JEFFREYS LEDGE   2021      49                N/A     5/ 5
CASHES LEDGE BUO 2050   48 49  220/  8/ 10 1000.3F   8/ 8
$$

.............KEY..............
   WCI - WIND CHILL
   TC  - TEMPERATURE IN CELSIUS
   VSB - VISIBILITY IN MILES
   HX  - HEAT INDEX
   FAIR- INDICATES FEW OR NO CLOUDS BELOW 12,000 FT, WITH NO
         SIGNIFICANT WEATHER AND/OR OBSTRUCTIONS TO VISIBILITY.




USA.gov is the U.S. government's official web portal to all federal, state and local government web resources and services.